BRITE-CA1 (TORONTO)

Last updated on Thu Nov 21 2024 00:03:26 GMT+0000 (Coordinated Universal Time)

1 40020U 14033L 24325.31422672 .00001898 00000+0 30562-3 0 9994 2 40020 97.8996 97.2620 0080733 314.0161 45.4411 14.70525809557804
UTC large
Height (km)
Speed (km/s)
/
Latitude / Longitude
Inclination (degrees)
Orbital Period (minutes)
Azimuth
Elevation
Range (km)
Doppler Factor

Next 0 passes for location: London (51.5072 / 0.1276)

Sorry there are no passes over London.